T7HHH SBSP-SBRJ

Flight info

Callsign T7HHH
Flight time 0h 34m
Altitude 25000
Route NIBRU UZ171 KEVUN
Aircraft A20N/M-SDE2E3FGHIRWXY/LB1

Departure

Time 2026-05-05 04:06
Airport Congonhas–Deputado Freitas Nobre Airport (SBSP)

Arrival

Time 2026-05-05 04:41
Airport Santos Dumont Airport (SBRJ)
Time Latitude Longitude Altitude Speed Heading
2026-05-05 03:49 -23.62816 -46.65753 2608 ft 0 kts 238°
2026-05-05 03:54 -23.62811 -46.65745 2608 ft 1 kts 239°
2026-05-05 03:54 -23.62802 -46.65733 2609 ft 2 kts 210°
2026-05-05 03:55 -23.62788 -46.65727 2609 ft 2 kts 184°
2026-05-05 03:55 -23.62773 -46.65729 2609 ft 2 kts 156°
2026-05-05 03:55 -23.62767 -46.65733 2608 ft 1 kts 142°
2026-05-05 03:55 -23.62763 -46.65736 2608 ft 0 kts 146°
2026-05-05 04:02 -23.62764 -46.65735 2608 ft 0 kts 145°
2026-05-05 04:02 -23.62774 -46.65727 2609 ft 2 kts 139°
2026-05-05 04:02 -23.62790 -46.65703 2610 ft 5 kts 122°
2026-05-05 04:02 -23.62814 -46.65664 2611 ft 7 kts 126°
2026-05-05 04:03 -23.62858 -46.65623 2613 ft 9 kts 146°
2026-05-05 04:03 -23.62918 -46.65581 2616 ft 11 kts 148°
2026-05-05 04:03 -23.62983 -46.65537 2618 ft 10 kts 150°
2026-05-05 04:03 -23.63054 -46.65518 2620 ft 10 kts 165°
2026-05-05 04:04 -23.63116 -46.65480 2622 ft 9 kts 147°
2026-05-05 04:04 -23.63171 -46.65442 2623 ft 9 kts 147°
2026-05-05 04:04 -23.63221 -46.65406 2625 ft 9 kts 147°
2026-05-05 04:04 -23.63296 -46.65355 2628 ft 15 kts 147°
2026-05-05 04:05 -23.63399 -46.65283 2628 ft 19 kts 148°
2026-05-05 04:05 -23.63498 -46.65209 2625 ft 14 kts 127°
2026-05-05 04:05 -23.63473 -46.65111 2624 ft 11 kts 51°
2026-05-05 04:05 -23.63439 -46.65113 2625 ft 0 kts 327°
2026-05-05 04:06 -23.63291 -46.65216 2629 ft 67 kts 327°
2026-05-05 04:06 -23.62655 -46.65657 2610 ft 146 kts 327°
2026-05-05 04:06 -23.61715 -46.66313 3131 ft 164 kts 328°
2026-05-05 04:06 -23.60771 -46.66949 4001 ft 163 kts 339°
2026-05-05 04:07 -23.59674 -46.66913 4754 ft 171 kts 28°
2026-05-05 04:07 -23.58915 -46.65824 5263 ft 201 kts 75°
2026-05-05 04:07 -23.59027 -46.64196 5421 ft 229 kts 107°
2026-05-05 04:07 -23.59605 -46.62542 5437 ft 234 kts 112°
2026-05-05 04:08 -23.60288 -46.60924 5436 ft 238 kts 118°
2026-05-05 04:08 -23.61131 -46.59255 5445 ft 265 kts 116°
2026-05-05 04:08 -23.61967 -46.57404 5440 ft 275 kts 116°
2026-05-05 04:08 -23.62843 -46.55540 5444 ft 278 kts 118°
2026-05-05 04:09 -23.63856 -46.53686 5843 ft 290 kts 123°
2026-05-05 04:09 -23.65040 -46.51890 7036 ft 293 kts 128°
2026-05-05 04:09 -23.66349 -46.50251 8330 ft 290 kts 134°
2026-05-05 04:09 -23.67776 -46.48726 9464 ft 293 kts 137°
2026-05-05 04:10 -23.69261 -46.47186 10533 ft 297 kts 137°
2026-05-05 04:10 -23.70580 -46.45403 11217 ft 316 kts 118°
2026-05-05 04:10 -23.71176 -46.43038 11811 ft 337 kts 94°
2026-05-05 04:10 -23.70941 -46.40414 12386 ft 357 kts 81°
2026-05-05 04:11 -23.70512 -46.37684 12906 ft 376 kts 81°
2026-05-05 04:11 -23.70064 -46.34811 13356 ft 395 kts 81°
2026-05-05 04:11 -23.69610 -46.31794 13738 ft 413 kts 81°
2026-05-05 04:11 -23.69147 -46.28638 14107 ft 429 kts 81°
2026-05-05 04:12 -23.68674 -46.25362 14728 ft 437 kts 82°
2026-05-05 04:12 -23.68201 -46.22075 15425 ft 442 kts 82°
2026-05-05 04:12 -23.67728 -46.18772 16074 ft 446 kts 82°
2026-05-05 04:12 -23.67246 -46.15419 16683 ft 452 kts 82°
2026-05-05 04:13 -23.66756 -46.12001 17274 ft 457 kts 82°
2026-05-05 04:13 -23.66263 -46.08573 17830 ft 462 kts 82°
2026-05-05 04:13 -23.65763 -46.05094 18394 ft 467 kts 82°
2026-05-05 04:13 -23.65262 -46.01610 18976 ft 471 kts 83°
2026-05-05 04:14 -23.64752 -45.98074 19558 ft 475 kts 83°
2026-05-05 04:14 -23.64240 -45.94518 20122 ft 480 kts 83°
2026-05-05 04:14 -23.63722 -45.90929 20686 ft 484 kts 83°
2026-05-05 04:14 -23.63197 -45.87295 21250 ft 488 kts 83°
2026-05-05 04:15 -23.62664 -45.83622 21796 ft 492 kts 83°
2026-05-05 04:15 -23.62133 -45.79965 22537 ft 491 kts 83°
2026-05-05 04:15 -23.61602 -45.76317 23354 ft 488 kts 83°
2026-05-05 04:15 -23.61072 -45.72676 24083 ft 488 kts 83°
2026-05-05 04:16 -23.60539 -45.69013 24675 ft 490 kts 83°
2026-05-05 04:16 -23.60003 -45.65322 25080 ft 495 kts 83°
2026-05-05 04:16 -23.59460 -45.61601 25206 ft 498 kts 83°
2026-05-05 04:16 -23.58913 -45.57869 25212 ft 499 kts 83°
2026-05-05 04:17 -23.58369 -45.54176 25213 ft 499 kts 83°
2026-05-05 04:17 -23.57819 -45.50435 25215 ft 499 kts 83°
2026-05-05 04:17 -23.57232 -45.46722 25212 ft 499 kts 81°
2026-05-05 04:17 -23.56501 -45.43057 25212 ft 499 kts 79°
2026-05-05 04:18 -23.55720 -45.39361 25208 ft 499 kts 79°
2026-05-05 04:18 -23.54934 -45.35679 25207 ft 499 kts 78°
2026-05-05 04:18 -23.54149 -45.32008 25201 ft 499 kts 78°
2026-05-05 04:18 -23.53369 -45.28350 25196 ft 498 kts 78°
2026-05-05 04:19 -23.52577 -45.24633 25197 ft 499 kts 78°
2026-05-05 04:19 -23.51803 -45.20996 25198 ft 498 kts 78°
2026-05-05 04:19 -23.51017 -45.17303 25190 ft 499 kts 78°
2026-05-05 04:19 -23.50232 -45.13621 25188 ft 499 kts 78°
2026-05-05 04:20 -23.49456 -45.09981 25188 ft 499 kts 78°
2026-05-05 04:20 -23.48672 -45.06309 25187 ft 499 kts 78°
2026-05-05 04:20 -23.47883 -45.02616 25183 ft 498 kts 78°
2026-05-05 04:20 -23.47106 -44.98969 25193 ft 499 kts 78°
2026-05-05 04:21 -23.46322 -44.95312 25187 ft 499 kts 78°
2026-05-05 04:21 -23.45511 -44.91616 25179 ft 499 kts 78°
2026-05-05 04:21 -23.44698 -44.87973 25176 ft 499 kts 77°
2026-05-05 04:21 -23.43880 -44.84318 25165 ft 499 kts 77°
2026-05-05 04:22 -23.43059 -44.80645 25159 ft 498 kts 77°
2026-05-05 04:22 -23.42241 -44.76979 25154 ft 498 kts 77°
2026-05-05 04:22 -23.41422 -44.73304 25151 ft 498 kts 77°
2026-05-05 04:22 -23.40609 -44.69658 25151 ft 498 kts 77°
2026-05-05 04:23 -23.39798 -44.66025 25151 ft 498 kts 77°
2026-05-05 04:23 -23.38975 -44.62346 25147 ft 498 kts 77°
2026-05-05 04:23 -23.38163 -44.58711 25146 ft 498 kts 77°
2026-05-05 04:23 -23.37345 -44.55052 25144 ft 497 kts 77°
2026-05-05 04:24 -23.36523 -44.51382 25141 ft 498 kts 77°
2026-05-05 04:24 -23.35710 -44.47762 25137 ft 498 kts 77°
2026-05-05 04:24 -23.34791 -44.44109 25047 ft 496 kts 74°
2026-05-05 04:25 -23.32333 -44.37141 22953 ft 501 kts 66°
2026-05-05 04:25 -23.30863 -44.33714 21651 ft 503 kts 65°
2026-05-05 04:25 -23.29382 -44.30323 20878 ft 492 kts 64°
2026-05-05 04:25 -23.27933 -44.27003 20120 ft 482 kts 64°
2026-05-05 04:26 -23.26516 -44.23738 19316 ft 474 kts 64°
2026-05-05 04:26 -23.25147 -44.20567 18469 ft 468 kts 64°
2026-05-05 04:26 -23.23766 -44.17359 17620 ft 461 kts 64°
2026-05-05 04:26 -23.22435 -44.14272 16807 ft 455 kts 64°
2026-05-05 04:27 -23.21092 -44.11158 16004 ft 449 kts 64°
2026-05-05 04:27 -23.19780 -44.08120 15328 ft 439 kts 64°
2026-05-05 04:27 -23.18464 -44.05195 14839 ft 426 kts 63°
2026-05-05 04:27 -23.17159 -44.02375 14290 ft 416 kts 63°
2026-05-05 04:28 -23.15876 -43.99612 13822 ft 404 kts 63°
2026-05-05 04:28 -23.14674 -43.96898 13347 ft 394 kts 64°
2026-05-05 04:28 -23.13535 -43.94230 12877 ft 384 kts 65°
2026-05-05 04:28 -23.12432 -43.91628 12459 ft 374 kts 65°
2026-05-05 04:29 -23.11363 -43.89110 12044 ft 365 kts 65°
2026-05-05 04:29 -23.10300 -43.86617 11629 ft 357 kts 65°
2026-05-05 04:29 -23.09270 -43.84205 11225 ft 349 kts 65°
2026-05-05 04:29 -23.08262 -43.81846 10851 ft 341 kts 65°
2026-05-05 04:30 -23.07267 -43.79523 10429 ft 336 kts 65°
2026-05-05 04:30 -23.06301 -43.77266 10010 ft 330 kts 65°
2026-05-05 04:30 -23.05334 -43.75009 9596 ft 325 kts 65°
2026-05-05 04:30 -23.04391 -43.72812 9196 ft 320 kts 65°
2026-05-05 04:31 -23.03463 -43.70647 8808 ft 314 kts 65°
2026-05-05 04:31 -23.02553 -43.68541 8497 ft 307 kts 65°
2026-05-05 04:31 -23.01652 -43.66480 8237 ft 298 kts 64°
2026-05-05 04:31 -23.00769 -43.64469 7902 ft 292 kts 65°
2026-05-05 04:32 -22.99902 -43.62492 7558 ft 287 kts 65°
2026-05-05 04:32 -22.99043 -43.60537 7196 ft 284 kts 65°
2026-05-05 04:32 -22.98197 -43.58613 6812 ft 281 kts 65°
2026-05-05 04:32 -22.97366 -43.56723 6534 ft 274 kts 65°
2026-05-05 04:33 -22.96553 -43.54877 6323 ft 266 kts 65°
2026-05-05 04:33 -22.95770 -43.53097 6153 ft 257 kts 65°
2026-05-05 04:33 -22.95020 -43.51390 6002 ft 247 kts 65°
2026-05-05 04:33 -22.94306 -43.49738 5852 ft 238 kts 65°
2026-05-05 04:34 -22.93611 -43.48092 5471 ft 240 kts 65°
2026-05-05 04:34 -22.92916 -43.46441 5116 ft 241 kts 65°
2026-05-05 04:34 -22.92219 -43.44789 4770 ft 241 kts 65°
2026-05-05 04:34 -22.91526 -43.43150 4434 ft 240 kts 65°
2026-05-05 04:35 -22.90833 -43.41516 4267 ft 231 kts 65°
2026-05-05 04:35 -22.90179 -43.39972 4236 ft 217 kts 65°
2026-05-05 04:35 -22.89567 -43.38528 4195 ft 204 kts 65°
2026-05-05 04:35 -22.88981 -43.37146 4136 ft 202 kts 65°
2026-05-05 04:36 -22.88412 -43.35773 3980 ft 200 kts 70°
2026-05-05 04:36 -22.88294 -43.34285 3803 ft 201 kts 96°
2026-05-05 04:36 -22.88481 -43.32750 3576 ft 206 kts 95°
2026-05-05 04:36 -22.88644 -43.31196 3302 ft 206 kts 94°
2026-05-05 04:37 -22.88795 -43.29661 3031 ft 207 kts 94°
2026-05-05 04:37 -22.88941 -43.28098 2756 ft 207 kts 94°
2026-05-05 04:37 -22.89109 -43.26556 2477 ft 206 kts 101°
2026-05-05 04:37 -22.89611 -43.25113 2201 ft 200 kts 113°
2026-05-05 04:38 -22.90225 -43.23801 1940 ft 192 kts 115°
2026-05-05 04:38 -22.90815 -43.22569 1766 ft 173 kts 114°
2026-05-05 04:38 -22.91341 -43.21449 1524 ft 160 kts 114°
2026-05-05 04:38 -22.91814 -43.20421 1289 ft 146 kts 113°
2026-05-05 04:39 -22.92227 -43.19456 1080 ft 132 kts 115°
2026-05-05 04:39 -22.92878 -43.18838 1022 ft 128 kts 157°
2026-05-05 04:39 -22.93702 -43.18478 985 ft 126 kts 143°
2026-05-05 04:39 -22.94216 -43.17736 786 ft 123 kts 103°
2026-05-05 04:40 -22.94180 -43.16847 566 ft 121 kts 65°
2026-05-05 04:40 -22.93585 -43.16211 441 ft 122 kts 22°
2026-05-05 04:40 -22.92731 -43.16187 232 ft 123 kts 358°
2026-05-05 04:40 -22.91876 -43.16237 89 ft 122 kts 358°
2026-05-05 04:41 -22.91074 -43.16288 22 ft 91 kts 356°
2026-05-05 04:41 -22.90662 -43.16315 22 ft 43 kts 356°
2026-05-05 04:41 -22.90512 -43.16329 21 ft 11 kts 335°
2026-05-05 04:41 -22.90484 -43.16417 19 ft 14 kts 266°
2026-05-05 04:42 -22.90490 -43.16522 21 ft 10 kts 266°
2026-05-05 04:42 -22.90533 -43.16564 22 ft 9 kts 182°
2026-05-05 04:42 -22.90608 -43.16560 22 ft 11 kts 176°
2026-05-05 04:42 -22.90695 -43.16556 22 ft 12 kts 176°
2026-05-05 04:43 -22.90740 -43.16573 22 ft 4 kts 259°
2026-05-05 04:43 -22.90739 -43.16611 22 ft 5 kts 269°
2026-05-05 04:43 -22.90740 -43.16626 22 ft 0 kts 266°